�������l�o���
Date,Time,MP-1(��Sv/h),MP-2(��Sv/h),MP-3(��Sv/h),MP-4(��Sv/h),MP-5(��Sv/h),MP-6(��Sv/h),MP-7(��Sv/h),MP-8(��Sv/h),����,����(m/s),���J
2017/10/10,00:00,0.932,1.475,0.959,1.757,1.224,0.507,0.928,0.857,�k�k��,1.4,��
2017/10/10,00:10,0.933,1.477,0.955,1.760,1.222,0.506,0.927,0.857,-,CALM,��
2017/10/10,00:20,0.934,1.476,0.958,1.760,1.225,0.508,0.926,0.857,���쐼,1.2,��
2017/10/10,00:30,0.934,1.478,0.955,1.760,1.221,0.507,0.928,0.857,-,CALM,��
2017/10/10,00:40,0.933,1.479,0.957,1.760,1.221,0.506,0.928,0.858,��,0.6,��
2017/10/10,00:50,0.935,1.478,0.956,1.759,1.222,0.508,0.928,0.856,��쐼,2.5,��
2017/10/10,01:00,0.934,1.479,0.955,1.760,1.222,0.506,0.927,0.856,�쐼,1.7,��
2017/10/10,01:10,0.932,1.478,0.956,1.758,1.222,0.508,0.928,0.855,��쐼,2.3,��
2017/10/10,01:20,0.934,1.478,0.955,1.758,1.222,0.508,0.927,0.858,��쐼,1.9,��
2017/10/10,01:30,0.933,1.478,0.956,1.758,1.222,0.506,0.928,0.856,-,CALM,��
2017/10/10,01:40,0.934,1.475,0.956,1.759,1.221,0.506,0.927,0.856,��,0.6,��
2017/10/10,01:50,0.933,1.479,0.957,1.762,1.221,0.506,0.928,0.855,-,CALM,��
2017/10/10,02:00,0.933,1.475,0.957,1.760,1.222,0.506,0.927,0.857,�k�k��,1.1,��
2017/10/10,02:10,0.933,1.474,0.957,1.761,1.221,0.507,0.926,0.857,�k,1.7,��
2017/10/10,02:20,0.935,1.479,0.958,1.759,1.220,0.507,0.927,0.857,�k,2.2,��
2017/10/10,02:30,0.936,1.477,0.956,1.759,1.223,0.506,0.926,0.856,�k,2.8,��
2017/10/10,02:40,0.934,1.478,0.956,1.761,1.223,0.507,0.927,0.857,�k�k��,3.3,��
2017/10/10,02:50,0.935,1.477,0.956,1.759,1.222,0.507,0.926,0.857,�k�k��,2.8,��
2017/10/10,03:00,0.934,1.478,0.956,1.760,1.222,0.507,0.927,0.854,�k��,2.3,��
2017/10/10,03:10,0.935,1.477,0.956,1.761,1.222,0.507,0.927,0.856,�k��,3.7,��
2017/10/10,03:20,0.935,1.479,0.957,1.759,1.221,0.507,0.927,0.857,�k��,4.2,��
2017/10/10,03:30,0.932,1.477,0.958,1.759,1.222,0.505,0.927,0.857,�k��,3.1,��
2017/10/10,03:40,0.934,1.476,0.957,1.759,1.221,0.506,0.927,0.858,-,CALM,��
2017/10/10,03:50,0.933,1.477,0.957,1.759,1.222,0.506,0.926,0.857,�k��,1.4,��
2017/10/10,04:00,0.931,1.478,0.955,1.761,1.220,0.506,0.927,0.855,�k�k��,1.2,��
2017/10/10,04:10,0.933,1.478,0.956,1.759,1.223,0.506,0.927,0.856,-,CALM,��
2017/10/10,04:20,0.933,1.476,0.956,1.763,1.223,0.508,0.928,0.856,�k��,0.9,��
2017/10/10,04:30,0.933,1.480,0.955,1.759,1.224,0.507,0.928,0.856,���k��,1.5,��
2017/10/10,04:40,0.933,1.478,0.956,1.761,1.223,0.508,0.926,0.856,�k�k��,1.1,��
2017/10/10,04:50,0.934,1.475,0.957,1.760,1.222,0.507,0.928,0.857,�k�k��,1.5,��
2017/10/10,05:00,0.934,1.479,0.955,1.760,1.220,0.506,0.928,0.856,�k,1.4,��
2017/10/10,05:10,0.934,1.478,0.955,1.760,1.223,0.507,0.929,0.856,�k�k��,1.5,��
2017/10/10,05:20,0.934,1.475,0.955,1.761,1.223,0.505,0.929,0.856,�k��,1.2,��
2017/10/10,05:30,0.933,1.477,0.956,1.758,1.222,0.507,0.929,0.856,�k��,2.0,��
2017/10/10,05:40,0.932,1.476,0.954,1.760,1.221,0.506,0.929,0.856,���k��,2.2,��
2017/10/10,05:50,0.932,1.476,0.954,1.758,1.223,0.505,0.927,0.857,���k��,2.0,��
2017/10/10,06:00,0.933,1.477,0.954,1.758,1.221,0.506,0.928,0.859,��,1.2,��
2017/10/10,06:10,0.931,1.475,0.952,1.760,1.222,0.507,0.929,0.856,���k��,1.5,��
2017/10/10,06:20,0.931,1.476,0.952,1.760,1.222,0.506,0.929,0.857,���k��,1.5,��
2017/10/10,06:30,0.930,1.476,0.957,1.761,1.222,0.506,0.928,0.857,���k��,2.2,��
2017/10/10,06:40,0.931,1.476,0.955,1.759,1.221,0.506,0.929,0.857,�k��,2.3,��
2017/10/10,06:50,0.930,1.477,0.955,1.758,1.221,0.504,0.929,0.856,�k��,3.1,��
2017/10/10,07:00,0.931,1.477,0.957,1.762,1.222,0.506,0.930,0.854,�k��,3.2,��
2017/10/10,07:10,0.931,1.480,0.956,1.762,1.221,0.507,0.930,0.857,�k�k��,3.0,��
2017/10/10,07:20,0.933,1.478,0.955,1.760,1.222,0.506,0.928,0.858,�k��,2.9,��
2017/10/10,07:30,0.932,1.478,0.957,1.761,1.221,0.505,0.930,0.855,�k��,2.3,��
2017/10/10,07:40,0.934,1.480,0.955,1.762,1.223,0.507,0.928,0.857,�k��,1.9,��
2017/10/10,07:50,0.935,1.475,0.954,1.765,1.221,0.507,0.929,0.856,���k��,1.4,��
2017/10/10,08:00,0.933,1.478,0.955,1.761,1.224,0.508,0.929,0.857,�k��,2.5,��
2017/10/10,08:10,0.934,1.478,0.956,1.762,1.221,0.507,0.927,0.857,�k�k��,2.5,��
2017/10/10,08:20,0.931,1.475,0.955,1.764,1.222,0.507,0.925,0.860,���k��,2.9,��
2017/10/10,08:30,0.933,1.470,0.956,1.764,1.222,0.507,0.924,0.858,���k��,2.9,��
2017/10/10,08:40,0.931,1.474,0.956,1.766,1.222,0.506,0.925,0.858,���k��,1.7,��
2017/10/10,08:50,0.933,1.474,0.954,1.764,1.218,0.506,0.926,0.857,�k�k��,1.2,��
2017/10/10,09:00,0.934,1.471,0.956,1.767,1.220,0.507,0.925,0.855,�k��,1.1,��
2017/10/10,09:10,0.934,1.469,0.958,1.764,1.223,0.507,0.928,0.856,���k��,0.8,��
2017/10/10,09:20,0.933,1.475,0.955,1.767,1.223,0.505,0.928,0.855,-,CALM,��
2017/10/10,09:30,0.932,1.477,0.957,1.764,1.220,0.506,0.927,0.855,�쓌,2.8,��
2017/10/10,09:40,0.930,1.474,0.956,1.765,1.222,0.503,0.927,0.854,�쓌,3.3,��
2017/10/10,09:50,0.930,1.476,0.954,1.766,1.222,0.504,0.928,0.856,�쓌,2.8,��
2017/10/10,10:00,0.932,1.475,0.955,1.766,1.221,0.503,0.929,0.853,�쓌,2.8,��
2017/10/10,10:10,0.932,1.474,0.953,1.765,1.224,0.503,0.928,0.855,�쓌,2.8,��
2017/10/10,10:20,0.932,1.474,0.953,1.764,1.219,0.502,0.928,0.855,�쓌,3.2,��
2017/10/10,10:30,0.929,1.475,0.954,1.762,1.219,0.505,0.928,0.855,�쓌,3.0,��
2017/10/10,10:40,0.935,1.474,0.954,1.765,1.224,0.503,0.926,0.854,��쓌,2.3,��
2017/10/10,10:50,0.932,1.474,0.954,1.764,1.222,0.505,0.929,0.854,�쓌,2.3,��
2017/10/10,11:00,0.932,1.476,0.955,1.762,1.222,0.505,0.929,0.855,�쓌,2.0,��
2017/10/10,11:10,0.932,1.477,0.953,1.766,1.224,0.504,0.927,0.854,�쓌,4.0,��
2017/10/10,11:20,0.933,1.477,0.956,1.763,1.221,0.503,0.928,0.855,��쓌,4.0,��
2017/10/10,11:30,0.933,1.478,0.956,1.765,1.224,0.503,0.929,0.855,�쓌,4.4,��
2017/10/10,11:40,0.931,1.477,0.955,1.764,1.223,0.506,0.928,0.856,��쓌,4.5,��
2017/10/10,11:50,0.934,1.480,0.957,1.766,1.224,0.505,0.927,0.857,��,3.7,��
2017/10/10,12:00,0.936,1.483,0.958,1.763,1.224,0.505,0.924,0.854,��쓌,4.7,��
2017/10/10,12:10,0.936,1.484,0.958,1.769,1.225,0.505,0.928,0.855,��쓌,4.6,��
2017/10/10,12:20,0.938,1.486,0.958,1.765,1.226,0.507,0.926,0.854,��쓌,5.7,��
2017/10/10,12:30,0.936,1.484,0.960,1.768,1.224,0.504,0.926,0.855,��쓌,5.1,��
2017/10/10,12:40,0.939,1.480,0.955,1.767,1.226,0.506,0.926,0.855,��쓌,4.2,��
2017/10/10,12:50,0.938,1.488,0.958,1.767,1.227,0.506,0.925,0.854,��쓌,4.7,��
2017/10/10,13:00,0.938,1.485,0.957,1.767,1.227,0.507,0.927,0.853,��쓌,4.6,��
2017/10/10,13:10,0.939,1.484,0.958,1.766,1.225,0.507,0.927,0.857,��,4.3,��
2017/10/10,13:20,0.938,1.485,0.960,1.766,1.226,0.506,0.931,0.856,��,4.7,��
2017/10/10,13:30,0.935,1.484,0.958,1.768,1.230,0.507,0.929,0.856,��,5.3,��
2017/10/10,13:40,0.937,1.484,0.960,1.766,1.226,0.507,0.931,0.855,��,4.8,��
2017/10/10,13:50,0.937,1.484,0.959,1.766,1.226,0.506,0.928,0.857,��,5.0,��
2017/10/10,14:00,0.937,1.483,0.956,1.767,1.225,0.507,0.929,0.854,��쐼,3.5,��
2017/10/10,14:10,0.936,1.486,0.959,1.768,1.227,0.507,0.931,0.856,��,2.6,��
2017/10/10,14:20,0.935,1.485,0.958,1.766,1.226,0.507,0.928,0.855,��,2.0,��
2017/10/10,14:30,0.937,1.482,0.957,1.768,1.225,0.506,0.929,0.857,��,2.2,��
2017/10/10,14:40,0.938,1.482,0.957,1.767,1.227,0.507,0.928,0.856,��,2.0,��
2017/10/10,14:50,0.939,1.484,0.961,1.765,1.227,0.507,0.929,0.856,�쐼,2.0,��
2017/10/10,15:00,0.937,1.485,0.962,1.770,1.228,0.507,0.929,0.857,�쐼,2.6,��
2017/10/10,15:10,0.935,1.485,0.962,1.766,1.228,0.508,0.931,0.857,���쐼,4.7,��
2017/10/10,15:20,0.937,1.490,0.962,1.772,1.228,0.510,0.929,0.858,��,7.9,��
2017/10/10,15:30,0.940,1.485,0.962,1.772,1.230,0.509,0.929,0.857,���쐼,6.8,��
2017/10/10,15:40,0.938,1.487,0.962,1.774,1.227,0.508,0.931,0.857,��,5.7,��
2017/10/10,15:50,0.939,1.490,0.963,1.770,1.231,0.510,0.932,0.857,��,6.5,��
2017/10/10,16:00,0.938,1.487,0.961,1.771,1.229,0.508,0.931,0.857,���쐼,5.9,��
2017/10/10,16:10,0.938,1.486,0.964,1.769,1.227,0.511,0.930,0.858,���쐼,5.4,��
2017/10/10,16:20,0.939,1.489,0.962,1.771,1.227,0.507,0.932,0.857,���쐼,5.0,��
2017/10/10,16:30,0.939,1.487,0.963,1.771,1.232,0.509,0.930,0.857,���쐼,7.0,��
2017/10/10,16:40,0.938,1.488,0.962,1.772,1.226,0.509,0.932,0.859,���쐼,5.6,��
2017/10/10,16:50,0.939,1.489,0.964,1.772,1.229,0.510,0.931,0.857,���쐼,5.4,��
2017/10/10,17:00,0.938,1.487,0.963,1.771,1.228,0.509,0.931,0.858,���쐼,4.4,��
2017/10/10,17:10,0.939,1.490,0.965,1.770,1.230,0.508,0.932,0.857,�쐼,4.5,��
2017/10/10,17:20,0.939,1.489,0.962,1.773,1.229,0.508,0.930,0.857,���쐼,3.7,��
2017/10/10,17:30,0.939,1.490,0.963,1.771,1.232,0.510,0.929,0.859,���쐼,3.4,��
2017/10/10,17:40,0.939,1.491,0.965,1.773,1.232,0.511,0.932,0.858,���쐼,3.0,��
2017/10/10,17:50,0.938,1.494,0.966,1.773,1.229,0.512,0.931,0.858,���쐼,2.6,��
2017/10/10,18:00,0.940,1.490,0.965,1.774,1.232,0.510,0.930,0.859,���쐼,2.0,��
2017/10/10,18:10,0.937,1.490,0.963,1.773,1.230,0.510,0.931,0.860,�쐼,2.8,��
2017/10/10,18:20,0.940,1.493,0.964,1.772,1.232,0.509,0.931,0.859,��쐼,4.0,��
2017/10/10,18:30,0.938,1.491,0.965,1.773,1.232,0.509,0.934,0.858,�쐼,4.7,��
2017/10/10,18:40,0.939,1.487,0.968,1.771,1.232,0.509,0.931,0.859,�쐼,5.1,��
2017/10/10,18:50,0.937,1.488,0.966,1.771,1.232,0.511,0.932,0.858,���쐼,5.4,��
2017/10/10,19:00,0.941,1.488,0.966,1.774,1.232,0.510,0.930,0.859,�쐼,4.4,��
2017/10/10,19:10,0.939,1.489,0.966,1.772,1.229,0.511,0.931,0.859,���쐼,3.2,��
2017/10/10,19:20,0.940,1.493,0.965,1.773,1.231,0.510,0.932,0.859,��,3.9,��
2017/10/10,19:30,0.942,1.489,0.965,1.775,1.233,0.511,0.931,0.859,��,4.3,��
2017/10/10,19:40,0.941,1.490,0.965,1.773,1.233,0.511,0.931,0.859,�쐼,3.7,��
2017/10/10,19:50,0.941,1.487,0.967,1.772,1.231,0.509,0.931,0.859,��,5.6,��
2017/10/10,20:00,0.942,1.489,0.964,1.772,1.231,0.510,0.932,0.859,���쐼,2.0,��
2017/10/10,20:10,0.942,1.490,0.964,1.771,1.231,0.510,0.930,0.859,��,2.8,��
2017/10/10,20:20,0.941,1.490,0.965,1.771,1.232,0.509,0.932,0.860,�쐼,3.7,��
2017/10/10,20:30,0.941,1.489,0.965,1.771,1.229,0.510,0.932,0.859,�쐼,3.5,��
2017/10/10,20:40,0.942,1.489,0.966,1.769,1.231,0.511,0.931,0.859,��쐼,2.9,��
2017/10/10,20:50,0.941,1.490,0.965,1.774,1.229,0.512,0.931,0.860,���쐼,2.2,��
2017/10/10,21:00,0.942,1.489,0.964,1.773,1.231,0.511,0.932,0.860,��,1.1,��
2017/10/10,21:10,0.940,1.489,0.965,1.770,1.233,0.510,0.932,0.859,�쓌,1.1,��
2017/10/10,21:20,0.941,1.490,0.965,1.773,1.230,0.510,0.932,0.859,���쐼,1.2,��
2017/10/10,21:30,0.942,1.490,0.964,1.772,1.234,0.510,0.931,0.860,��쐼,0.6,��
2017/10/10,21:40,0.938,1.487,0.966,1.773,1.231,0.509,0.932,0.858,��쓌,0.6,��
2017/10/10,21:50,0.942,1.487,0.965,1.771,1.231,0.511,0.932,0.859,��,1.5,��
2017/10/10,22:00,0.941,1.488,0.964,1.771,1.231,0.510,0.930,0.859,��,1.1,��
2017/10/10,22:10,0.940,1.491,0.963,1.772,1.232,0.510,0.930,0.858,-,CALM,��
2017/10/10,22:20,0.941,1.490,0.964,1.767,1.233,0.510,0.932,0.858,�쐼,0.9,��
2017/10/10,22:30,0.940,1.489,0.965,1.772,1.232,0.510,0.933,0.858,���k��,0.9,��
2017/10/10,22:40,0.940,1.488,0.965,1.770,1.233,0.510,0.933,0.860,��,1.4,��
2017/10/10,22:50,0.940,1.489,0.964,1.769,1.233,0.511,0.931,0.860,���k��,1.2,��
2017/10/10,23:00,0.940,1.490,0.965,1.771,1.229,0.511,0.932,0.859,�k�k��,1.2,��
2017/10/10,23:10,0.939,1.490,0.965,1.772,1.231,0.511,0.931,0.858,�k,3.1,��
2017/10/10,23:20,0.940,1.488,0.965,1.772,1.231,0.509,0.933,0.859,�k,3.6,��
2017/10/10,23:30,0.939,1.487,0.964,1.770,1.233,0.509,0.932,0.858,�k�k��,3.6,��
2017/10/10,23:40,0.939,1.489,0.962,1.771,1.231,0.510,0.930,0.860,�k�k��,3.6,��
2017/10/10,23:50,0.940,1.487,0.964,1.771,1.229,0.508,0.931,0.857,�k�k��,4.7,��
